Weather History for Ostrava, Czech Republic

Change the Weather History Date:

Monday, November 12, 2012

  Actual Average (EPKT) Record (EPKT)
Temperature  
Mean Temperature 46 °F -  
Max Temperature 49 °F 41 °F 51 °F (2010)
Min Temperature 42 °F 31 °F 19 °F (2011)
Degree Days  
Heating Degree Days 18    
Moisture  
Dew Point 44 °F    
Average Humidity 88    
Maximum Humidity 100    
Minimum Humidity 64    
Precipitation  
Precipitation 0.08 in 0.05 in - ()
Sea Level Pressure  
Sea Level Pressure 30.21 in    
Wind  
Wind Speed 5 mph ()    
Max Wind Speed 12 mph    
Max Gust Speed -    
Visibility 4.4 miles    
Events Rain    
Averages and records for this station are not official NWS values.
T = Trace of Precipitation, MM = Missing Value Source: Averaged Metar Reports

Daily Weather History Graph

Daily Weather History Graph

Search for Another Location

Airport:

Trip Planner

Search our weather history database for the weather conditions in past years. The results will help you decide how hot, cold, wet, or windy it might be!

Date:

Astronomy

Nov. 12, 2012 Rise Set
Actual Time 6:54 AM CET 4:07 PM CET
Civil Twilight 6:19 AM CET 4:42 PM CET
Nautical Twilight 5:41 AM CET 5:21 PM CET
Astronomical Twilight 5:03 AM CET 5:59 PM CET
Moon 4:51 AM CET (11/12) 3:04 PM CET (11/12)
Length of Visible Light 10h 23m
Length of Day
9h 13m
Waning Crescent, 3% of the Moon is Illuminated
Nov 12
Waning Crescent
Nov 13
New
Nov 20
First Quarter
Nov 28
Full
Dec 6
Last Quarter

Hourly Weather History & Observations

Time (CET) Temp. Windchill Dew Point Humidity Pressure Visibility Wind Dir Wind Speed Gust Speed Precip Events Conditions
12:00 AM 50.0 °F - 41.0 °F 71% 30.04 in 6.2 mi SSW 11.5 mph - N/A   Partly Cloudy
12:30 AM 50.0 °F - 41.0 °F 71% 30.06 in 6.2 mi SSW 9.2 mph - N/A   Partly Cloudy
1:00 AM 49 °F - 41 °F 64% 30.09 in 16 mi West 8.9 mph - -   Scattered Clouds
1:00 AM 48.2 °F - 41.0 °F 76% 30.06 in 6.2 mi West 8.1 mph - N/A   Partly Cloudy
1:30 AM 48.2 °F - 41.0 °F 76% 30.06 in - SW 5.8 mph - N/A   Clear
2:00 AM 50.0 °F - 42.8 °F 76% 30.06 in - SW 8.1 mph - N/A   Clear
2:30 AM 50.0 °F - 42.8 °F 76% 30.06 in - SW 8.1 mph - N/A   Clear
3:00 AM 50.0 °F - 42.8 °F 76% 30.09 in - SW 8.1 mph - N/A   Clear
3:30 AM 48.2 °F - 42.8 °F 82% 30.09 in - WSW 5.8 mph - N/A   Clear
4:00 AM 48.2 °F - 42.8 °F 82% 30.09 in 6.2 mi West 6.9 mph - N/A   Mostly Cloudy
4:30 AM 48.2 °F - 42.8 °F 82% 30.12 in 6.2 mi WSW 6.9 mph - N/A   Overcast
5:00 AM 48.2 °F - 42.8 °F 82% 30.12 in 6.2 mi SW 6.9 mph - N/A   Overcast
5:30 AM 48.2 °F - 42.8 °F 82% 30.12 in 6.2 mi SW 6.9 mph - N/A   Overcast
6:00 AM 48.2 °F - 42.8 °F 82% 30.12 in 6.2 mi SSW 5.8 mph - N/A Rain Light Rain
6:30 AM 48.2 °F - 42.8 °F 82% 30.15 in 6.2 mi SW 3.5 mph - N/A   Overcast
7:00 AM 47 °F - 43 °F 80% 30.20 in 7 mi SSW 4.5 mph - - Rain Light Rain
7:00 AM 48.2 °F - 42.8 °F 82% 30.15 in 6.2 mi SSW 3.5 mph - N/A   Overcast
7:30 AM 48.2 °F - 42.8 °F 82% 30.18 in 6.2 mi Variable 1.2 mph - N/A Rain Light Rain
8:00 AM 48.2 °F - 42.8 °F 82% 30.18 in 6.2 mi South 3.5 mph - N/A   Overcast
8:30 AM 48.2 °F - 44.6 °F 87% 30.21 in 5.6 mi West 3.5 mph - N/A Rain Light Rain
9:00 AM 48.2 °F - 44.6 °F 87% 30.21 in 4.3 mi Calm Calm - N/A Rain Light Rain
9:30 AM 48.2 °F - 44.6 °F 87% 30.21 in 4.3 mi Calm Calm - N/A Rain Light Rain
10:00 AM 48.2 °F - 44.6 °F 87% 30.21 in 4.3 mi Calm Calm - N/A Rain Light Rain
10:30 AM 48.2 °F - 46.4 °F 93% 30.21 in 3.7 mi Variable 1.2 mph - N/A Rain Light Rain
11:00 AM 48.2 °F - 44.6 °F 87% 30.24 in 3.7 mi Calm Calm - N/A Rain Light Rain
11:30 AM 48.2 °F - 46.4 °F 93% 30.21 in 3.7 mi NNW 2.3 mph - N/A Rain Light Rain
12:00 PM 48.2 °F - 46.4 °F 93% 30.21 in 2.8 mi Variable 1.2 mph - N/A   Overcast
12:30 PM 48.2 °F - 46.4 °F 93% 30.24 in 3.1 mi ESE 2.3 mph - N/A   Overcast
1:00 PM 49 °F - 46 °F 85% 30.27 in 3 mi NNE 2.2 mph - - Rain Light Rain
1:00 PM 48.2 °F - 46.4 °F 93% 30.24 in 3.1 mi Variable 2.3 mph - N/A   Mostly Cloudy
1:30 PM 48.2 °F - 46.4 °F 93% 30.24 in 3.1 mi Variable 2.3 mph - N/A   Mostly Cloudy
2:00 PM 48.2 °F - 46.4 °F 93% 30.24 in 3.1 mi NNE 3.5 mph - N/A   Overcast
2:30 PM 48.2 °F - 46.4 °F 93% 30.27 in 3.1 mi Variable 2.3 mph - N/A   Overcast
3:00 PM 48.2 °F - 46.4 °F 93% 30.27 in 3.1 mi Variable 2.3 mph - N/A   Overcast
3:30 PM 48.2 °F - 46.4 °F 93% 30.27 in 3.1 mi ENE 3.5 mph - N/A Rain Light Rain
4:00 PM 48.2 °F - 46.4 °F 93% 30.27 in 3.1 mi NE 2.3 mph - N/A   Overcast
4:30 PM 48.2 °F - 46.4 °F 93% 30.27 in 3.1 mi NE 2.3 mph - N/A   Overcast
5:00 PM 48.2 °F - 46.4 °F 93% 30.27 in 3.1 mi Variable 2.3 mph - N/A   Overcast
5:30 PM 46.4 °F - 46.4 °F 100% 30.27 in 2.8 mi NNE 2.3 mph - N/A   Mostly Cloudy
6:00 PM 46.4 °F - 46.4 °F 100% 30.30 in 2.8 mi NNW 1.2 mph - N/A   Mostly Cloudy
6:30 PM 46.4 °F - 46.4 °F 100% 30.30 in 2.5 mi NNE 2.3 mph - N/A   Partly Cloudy
7:00 PM 46 °F - 45 °F 96% 30.34 in 3 mi 4.5 mph - -   Mist
7:00 PM 46.4 °F 45.2 °F 44.6 °F 93% 30.30 in 3.1 mi NNE 3.5 mph - N/A   Scattered Clouds
7:30 PM 46.4 °F 45.2 °F 44.6 °F 93% 30.30 in - NE 3.5 mph - N/A   Overcast
8:00 PM 46.4 °F 45.2 °F 44.6 °F 93% 30.30 in 2.8 mi ENE 3.5 mph - N/A Rain Light Rain
8:30 PM 46.4 °F 45.2 °F 44.6 °F 93% 30.33 in 2.8 mi North 3.5 mph - N/A   Mostly Cloudy
9:00 PM 46.4 °F - 44.6 °F 93% 30.33 in 2.8 mi Variable 1.2 mph - N/A   Overcast
9:30 PM 46.4 °F - 44.6 °F 93% 30.33 in - North 2.3 mph - N/A   Partly Cloudy
10:00 PM 44.6 °F 42.2 °F 44.6 °F 100% 30.33 in 1.9 mi NE 4.6 mph - N/A   Partly Cloudy
10:30 PM 44.6 °F 42.2 °F 44.6 °F 100% 30.33 in 2.5 mi North 4.6 mph - N/A   Overcast
11:00 PM 44.6 °F 42.2 °F 42.8 °F 93% 30.36 in 2.5 mi NE 4.6 mph - N/A   Mostly Cloudy
11:30 PM 42.8 °F 39.3 °F 42.8 °F 100% 30.36 in 2.8 mi NNE 5.8 mph - N/A   Mostly Cloudy